This demonstration page uses our WeatherBlox Daily Observations layout. Learn more.

Left ArrowRight Arrow

41.86663, -103.66717

Hourly Observations for October 24, 2021

Temp ( °F °C ) Dew Point ( °F °C ) Humidity (%) Winds ( mph kmh ) Pressure ( in mb ) Visibility ( mi km ) Precip ( " mm )
12:53 am 00:53 Clear 45 7.2 40 4.4 83 83 NW 5 7 29.72 1006 10 16 N/A
1:53 am 01:53 Clear 44 6.7 37 2.8 76 76 WNW 8 13 29.72 1006 10 16 N/A
2:53 am 02:53 Clear 45 7.2 37 2.8 74 74 W 5 7 29.72 1007 10 16 N/A
3:53 am 03:53 Clear 42 5.6 34 1.1 73 73 NW 7 11 29.71 1006 10 16 N/A
4:53 am 04:53 Clear 38 3.3 32 undefined 79 79 NNW 5 7 29.75 1007 10 16 N/A
5:53 am 05:53 Clear 38 3.3 33 0.6 83 83 WSW 5 7 29.78 1009 10 16 N/A
6:53 am 06:53 Clear 40 4.4 34 1.1 79 79 W 9 15 29.81 1009 10 16 N/A
7:53 am 07:53 Sunny 42 5.6 35 1.7 76 76 WNW 8 13 29.82 1010 10 16 N/A
8:53 am 08:53 Sunny 44 6.7 38 3.3 79 79 W 12 19 29.85 1011 10 16 N/A
9:53 am 09:53 Sunny 50 10 40 4.4 68 68 NW 10 17 29.86 1011 10 16 N/A
10:53 am 10:53 Sunny 54 12.2 38 3.3 55 55 WNW 14 22 29.86 1011 10 16 N/A
11:53 am 11:53 Mostly Sunny 57 13.9 36 2.2 45 45 W 15 24 29.86 1011 10 16 N/A
12:53 pm 12:53 Mostly Sunny 59 15 35 1.7 41 41 WNW 13 20 29.85 1011 10 16 N/A
1:53 pm 13:53 Mostly Sunny 61 16.1 33 0.6 35 35 WNW 20 31 29.83 1010 10 16 N/A
2:53 pm 14:53 Mostly Sunny 61 16.1 31 -0.6 32 32 WNW 17 28 29.83 1010 10 16 N/A
3:53 pm 15:53 Sunny 62 16.7 30 -1.1 30 30 WNW 10 17 29.84 1011 10 16 N/A
4:53 pm 16:53 Sunny 61 16.1 30 -1.1 31 31 NW 7 11 29.86 1011 10 16 N/A
5:53 pm 17:53 Sunny 53 11.7 33 0.6 47 47 N N/A 29.89 1012 10 16 N/A
6:53 pm 18:53 Clear 45 7.2 33 0.6 63 63 ENE 6 9 29.90 1013 10 16 N/A
7:53 pm 19:53 Clear 43 6.1 32 undefined 65 65 E 6 9 29.91 1013 10 16 N/A
8:53 pm 20:53 Clear 40 4.4 31 -0.6 70 70 ESE 7 11 29.94 1014 10 16 N/A
9:53 pm 21:53 Clear 39 3.9 31 -0.6 73 73 E 7 11 29.94 1014 10 16 N/A
10:53 pm 22:53 Clear 38 3.3 31 -0.6 76 76 ESE 6 9 29.97 1015 10 16 N/A
11:53 pm 23:53 Clear 38 3.3 31 -0.6 76 76 E 9 15 29.94 1014 10 16 N/A

Powered by AerisWeather